Weather History for KMKN - January, 2013

Change the Weather History Date:

Wednesday, January 30, 2013

  Actual Average (KSEP) Record (KSEP)
Temperature  
Mean Temperature 44 °F -  
Max Temperature 51 °F 58 °F 77 °F (1952)
Min Temperature 37 °F 33 °F 10 °F (1949)
Degree Days  
Heating Degree Days 21    
Moisture  
Dew Point 19 °F    
Average Humidity 39    
Maximum Humidity 70    
Minimum Humidity 19    
Precipitation  
Precipitation 0.00 in - - ()
Sea Level Pressure  
Sea Level Pressure 30.04 in    
Wind  
Wind Speed 17 mph (WNW)    
Max Wind Speed 24 mph    
Max Gust Speed 34 mph    
Visibility 10 miles    
Events      
Averages and records for this station are not official NWS values.
T = Trace of Precipitation, MM = Missing Value Source: NWS Daily Summary

Daily Weather History Graph

Daily Weather History Graph

Search for Another Location

Airport or City:

Trip Planner

Search our weather history database for the weather conditions in past years. The results will help you decide how hot, cold, wet, or windy it might be!

Date:

Astronomy

Jan. 30, 2013 Rise Set
Actual Time 7:28 AM CST 6:06 PM CST
Civil Twilight 7:03 AM CST 6:32 PM CST
Nautical Twilight 6:33 AM CST 7:01 PM CST
Astronomical Twilight 6:05 AM CST 7:30 PM CST
Moon 9:48 PM CST (1/30) 9:13 AM CST (1/30)
Length of Visible Light 11h 29m
Length of Day
10h 38m
Waning Gibbous, 87% of the Moon is Illuminated
Jan 30
Waning Gibbous
Feb 3
Last Quarter
Feb 10
New
Feb 17
First Quarter
Feb 25
Full

Hourly Weather History & Observations

Time (CST) Temp. Windchill Dew Point Humidity Pressure Visibility Wind Dir Wind Speed Gust Speed Precip Events Conditions
12:15 AM 50.0 °F - 19.4 °F 30% 29.78 in 10.0 mi West 23.0 mph 32.2 mph N/A   Clear
12:35 AM 50.0 °F - 19.4 °F 30% 29.78 in 10.0 mi West 19.6 mph 29.9 mph N/A   Clear
12:55 AM 50.0 °F - 19.4 °F 30% 29.79 in 10.0 mi West 19.6 mph 27.6 mph N/A   Clear
1:15 AM 50.0 °F - 19.4 °F 30% 29.79 in 10.0 mi West 18.4 mph 28.8 mph N/A   Clear
1:55 AM 48.2 °F - 19.4 °F 32% 29.79 in 10.0 mi West 17.3 mph 26.5 mph N/A   Clear
2:15 AM 46.4 °F 39.2 °F 19.4 °F 34% 29.80 in 10.0 mi WNW 18.4 mph 25.3 mph N/A   Clear
2:35 AM 46.4 °F 39.0 °F 17.6 °F 32% 29.80 in 10.0 mi WNW 19.6 mph 26.5 mph N/A   Clear
2:55 AM 46.4 °F 39.5 °F 17.6 °F 32% 29.81 in 10.0 mi WNW 17.3 mph 29.9 mph N/A   Clear
3:15 AM 44.6 °F 37.8 °F 17.6 °F 34% 29.81 in 10.0 mi WNW 15.0 mph 19.6 mph N/A   Clear
3:35 AM 44.6 °F 36.9 °F 17.6 °F 34% 29.82 in 10.0 mi WNW 18.4 mph 23.0 mph N/A   Clear
3:55 AM 42.8 °F 33.5 °F 17.6 °F 36% 29.84 in 10.0 mi NW 23.0 mph 28.8 mph N/A   Clear
4:15 AM 42.8 °F 33.5 °F 21.2 °F 42% 29.83 in 10.0 mi NW 23.0 mph 31.1 mph N/A   Clear
4:35 AM 41.0 °F 31.6 °F 24.8 °F 53% 29.84 in 10.0 mi NW 20.7 mph 31.1 mph N/A   Clear
4:55 AM 41.0 °F 30.9 °F 28.4 °F 61% 29.86 in 10.0 mi NW 24.2 mph 34.5 mph N/A   Clear
5:15 AM 41.0 °F 32.5 °F 30.2 °F 65% 29.87 in 10.0 mi NW 17.3 mph 28.8 mph N/A   Clear
5:35 AM 41.0 °F 32.2 °F 32.0 °F 70% 29.89 in 10.0 mi NW 18.4 mph 27.6 mph N/A   Clear
5:55 AM 41.0 °F 31.4 °F 32.0 °F 70% 29.91 in 10.0 mi WNW 21.9 mph 27.6 mph N/A   Clear
6:15 AM 41.0 °F 31.9 °F 30.2 °F 65% 29.93 in 10.0 mi NW 19.6 mph 25.3 mph N/A   Scattered Clouds
6:35 AM 41.0 °F 32.2 °F 30.2 °F 65% 29.95 in 10.0 mi NW 18.4 mph 29.9 mph N/A   Clear
6:55 AM 39.2 °F 30.2 °F 28.4 °F 65% 29.97 in 10.0 mi NW 17.3 mph 31.1 mph N/A   Clear
7:15 AM 37.4 °F 26.6 °F 28.4 °F 70% 29.98 in 10.0 mi NW 21.9 mph 27.6 mph N/A   Clear
7:35 AM 37.4 °F 27.2 °F 26.6 °F 65% 30.00 in 10.0 mi NW 19.6 mph 26.5 mph N/A   Clear
7:55 AM 37.4 °F 26.6 °F 26.6 °F 65% 30.02 in 10.0 mi NW 21.9 mph 28.8 mph N/A   Clear
8:15 AM 37.4 °F 27.2 °F 26.6 °F 65% 30.03 in 10.0 mi NW 19.6 mph 26.5 mph N/A   Clear
8:35 AM 37.4 °F 26.4 °F 26.6 °F 65% 30.05 in 10.0 mi NW 23.0 mph 31.1 mph N/A   Clear
8:55 AM 37.4 °F 28.5 °F 26.6 °F 65% 30.07 in 10.0 mi NW 15.0 mph 29.9 mph N/A   Clear
9:15 AM 39.2 °F 28.7 °F 26.6 °F 61% 30.08 in 10.0 mi NW 23.0 mph 31.1 mph N/A   Clear
9:35 AM 39.2 °F 28.7 °F 26.6 °F 61% 30.09 in 10.0 mi NW 23.0 mph 31.1 mph N/A   Clear
9:55 AM 41.0 °F 31.6 °F 26.6 °F 57% 30.10 in 10.0 mi NW 20.7 mph 27.6 mph N/A   Clear
10:15 AM 42.8 °F 34.8 °F 26.6 °F 53% 30.11 in 10.0 mi NW 17.3 mph 25.3 mph N/A   Clear
10:35 AM 42.8 °F 35.1 °F 26.6 °F 53% 30.11 in 10.0 mi NW 16.1 mph 21.9 mph N/A   Clear
10:55 AM 44.6 °F 36.9 °F 26.6 °F 49% 30.12 in 10.0 mi NW 18.4 mph 27.6 mph N/A   Clear
11:15 AM 44.6 °F 36.4 °F 24.8 °F 46% 30.12 in 10.0 mi NW 20.7 mph 31.1 mph N/A   Clear
11:35 AM 46.4 °F 39.0 °F 24.8 °F 43% 30.13 in 10.0 mi NW 19.6 mph 26.5 mph N/A   Clear
11:55 AM 46.4 °F 38.7 °F 24.8 °F 43% 30.13 in 10.0 mi NNW 20.7 mph 28.8 mph N/A   Clear
12:15 PM 48.2 °F - 23.0 °F 37% 30.13 in 10.0 mi NNW 19.6 mph 26.5 mph N/A   Clear
12:35 PM 48.2 °F - 21.2 °F 34% 30.12 in 10.0 mi NW 17.3 mph 26.5 mph N/A   Clear
12:55 PM 50.0 °F - 17.6 °F 28% 30.11 in 10.0 mi NNW 23.0 mph 27.6 mph N/A   Clear
1:15 PM 50.0 °F - 19.4 °F 30% 30.10 in 10.0 mi NNW 16.1 mph 25.3 mph N/A   Clear
1:35 PM 50.0 °F - 17.6 °F 28% 30.10 in 10.0 mi NNW 20.7 mph 27.6 mph N/A   Clear
1:55 PM 50.0 °F - 14.0 °F 24% 30.10 in 10.0 mi NW 17.3 mph 25.3 mph N/A   Clear
2:15 PM 51.8 °F - 15.8 °F 24% 30.09 in 10.0 mi NW 19.6 mph 25.3 mph N/A   Clear
2:35 PM 50.0 °F - 14.0 °F 24% 30.09 in 10.0 mi NNW 17.3 mph 24.2 mph N/A   Clear
2:55 PM 50.0 °F - 14.0 °F 24% 30.09 in 10.0 mi NW 15.0 mph 23.0 mph N/A   Clear
3:15 PM 51.8 °F - 12.2 °F 21% 30.10 in 10.0 mi NW 12.7 mph 26.5 mph N/A   Clear
3:35 PM 51.8 °F - 12.2 °F 21% 30.11 in 10.0 mi NW 11.5 mph 21.9 mph N/A   Clear
3:55 PM 51.8 °F - 12.2 °F 21% 30.12 in 10.0 mi NNW 19.6 mph 24.2 mph N/A   Clear
4:15 PM 51.8 °F - 10.4 °F 19% 30.11 in 10.0 mi WNW 15.0 mph 25.3 mph N/A   Clear
4:35 PM 51.8 °F - 12.2 °F 21% 30.12 in 10.0 mi WNW 11.5 mph 18.4 mph N/A   Clear
4:55 PM 50.0 °F - 12.2 °F 22% 30.11 in 10.0 mi NW 9.2 mph 16.1 mph N/A   Clear
5:15 PM 50.0 °F - 12.2 °F 22% 30.12 in 10.0 mi NW 8.1 mph 16.1 mph N/A   Clear
5:35 PM 50.0 °F - 12.2 °F 22% 30.12 in 10.0 mi NW 9.2 mph 16.1 mph N/A   Clear
5:55 PM 48.2 °F - 12.2 °F 24% 30.12 in 10.0 mi NW 8.1 mph - N/A   Clear
6:15 PM 46.4 °F 42.4 °F 12.2 °F 25% 30.12 in 10.0 mi NW 8.1 mph - N/A   Clear
6:35 PM 44.6 °F 42.2 °F 14.0 °F 29% 30.13 in 10.0 mi NW 4.6 mph - N/A   Clear
6:55 PM 44.6 °F 42.2 °F 14.0 °F 29% 30.13 in 10.0 mi West 4.6 mph - N/A   Clear
7:15 PM 42.8 °F 39.3 °F 14.0 °F 31% 30.14 in 10.0 mi West 5.8 mph - N/A   Clear
7:35 PM 42.8 °F 39.3 °F 14.0 °F 31% 30.14 in 10.0 mi WSW 5.8 mph - N/A   Clear
7:55 PM 41.0 °F 37.1 °F 15.8 °F 36% 30.14 in 10.0 mi SW 5.8 mph - N/A   Clear
8:15 PM 42.8 °F 38.6 °F 14.0 °F 31% 30.15 in 10.0 mi WSW 6.9 mph - N/A   Clear
8:35 PM 42.8 °F 39.3 °F 14.0 °F 31% 30.15 in 10.0 mi SW 5.8 mph - N/A   Clear
8:55 PM 41.0 °F 35.8 °F 15.8 °F 36% 30.15 in 10.0 mi WSW 8.1 mph - N/A   Clear
9:15 PM 41.0 °F 37.1 °F 14.0 °F 33% 30.15 in 10.0 mi WSW 5.8 mph - N/A   Clear
9:35 PM 41.0 °F 36.4 °F 14.0 °F 33% 30.15 in 10.0 mi WSW 6.9 mph - N/A   Clear
9:55 PM 42.8 °F 38.6 °F 14.0 °F 31% 30.14 in 10.0 mi SW 6.9 mph - N/A   Clear
10:15 PM 41.0 °F 36.4 °F 14.0 °F 33% 30.15 in 10.0 mi SW 6.9 mph - N/A   Clear
10:35 PM 41.0 °F 36.4 °F 14.0 °F 33% 30.14 in 10.0 mi SW 6.9 mph - N/A   Clear
10:55 PM 41.0 °F 35.8 °F 14.0 °F 33% 30.14 in 10.0 mi SW 8.1 mph - N/A   Clear
11:15 PM 41.0 °F 35.8 °F 14.0 °F 33% 30.14 in 10.0 mi SW 8.1 mph - N/A   Clear
11:35 PM 41.0 °F 35.2 °F 14.0 °F 33% 30.15 in 10.0 mi SW 9.2 mph - N/A   Clear
11:55 PM 41.0 °F 34.7 °F 14.0 °F 33% 30.15 in 10.0 mi SW 10.4 mph - N/A   Clear